Espace membre
Imprimable
Mont-Saint-Guibert, 26/01/2020, BEL - Sand Race Winter
Liste des rapports > Sand Race Winter Extrem 10km by night - Classement
Recherche: Page: 1 [2]
615 Entrées
 
Les réclamations ne sont plus acceptées, les résultats sont considérés comme définitifs.
Catégorie
PosNrNomAgeIOCEquipeTempsTkmMoy.RangNomLocalité
501.1486HADDI Norddine24BEL2:46:4216:41 3.60225SEH
502.1485MEERT Jonathan34BEL2:46:4316:41 3.60226SEH
503.1354CHAGHOUANI Samir31BEL2:46:4416:41 3.60227SEH
504.3793NR 3793 XXX2:48:5816:54 3.55-
505.1782FDE COCK Eloïse26BEL2:48:5916:54 3.5586SEF
506.3795FDURAY Christelle32BEL2:48:5916:54 3.5587SEF
507.1781FRUBY Radoux36BEL2:49:0116:55 3.5523F35
508.3208GODEFROID Claude33BEL2:49:5517:00 3.53228SEH
509.3674DUPONT Bertrand33BEL2:49:5817:00 3.53229SEH
510.1462COENEN Dimitri46BEL2:50:1517:02 3.5228M45
511.1461FDE NUL Sandra48BEL2:50:1517:02 3.524F45
512.3205PRINS Anthony28BEL2:50:2217:03 3.52230SEH
513.1644GEOFFREY Storm26BEL2:50:2317:03 3.52231SEH
514.1643BROIDIOI Kevin25BEL2:50:2417:03 3.52232SEH
515.1645BOUCKAERT Remy26BEL2:50:2417:03 3.52233SEH
516.1646TERRYN Adrien21BEL2:50:2517:03 3.52234SEH
517.1349FBROUTOUT Sophie43BEL2:51:0517:07 3.5110F40
518.1304FALYSSIA Bonté27BEL2:51:0617:07 3.5188SEF
519.1344FMAES Stéphanie34BEL2:51:0717:07 3.5189SEF
520.1302FBONTÉ Célia22BEL2:51:0817:07 3.5190SEF
521.1792FBONTÉ Véronique54BEL2:51:1017:07 3.511F50
522.1677DE RYCKE Sébastien22BEL2:52:2017:14 3.48235SEH
523.1733FGOFFELLI Estelle27BEL2:52:2617:15 3.4891SEF
524.1728GOFFELLI Thomas25BEL2:52:2717:15 3.48236SEH
525.1434FDE KEYZER Vanessa28BEL2:52:4317:17 3.4792SEF
526.1203STEVENS Bryan21BEL2:53:5717:24 3.45237SEH
527.1202GRARD Thomas21BEL2:53:5717:24 3.45238SEH
528.3731FABEL Julie39BEL2:54:0117:25 3.4524F35
529.1420FDE WAHA Lea19BEL2:54:0817:25 3.4593SEF
530.3732LEGRAIN Valentin28BEL2:54:1317:26 3.44239SEH
531.3673FNINNIRI Sophie39BEL2:54:1317:26 3.4425F35
532.1351FSONNENBERG Zoe28BEL2:54:3217:28 3.4494SEF
533.1397FBENABOU Loubna34BEL2:54:5517:30 3.4395SEF
534.1395FDELVAUX Abbygael36BEL2:54:5817:30 3.4326F35
535.1396FJENNIFER Lovenfosse47BEL2:54:5817:30 3.435F45
536.1493FMASA Manuela31BEL2:55:0017:30 3.4396SEF
537.1352DELHALLE Axel31BEL2:55:0217:31 3.43240SEH
538.1389ORIS Quentin32BEL2:55:0317:31 3.43241SEH
539.1796DESSART Johan44BEL2:55:0517:31 3.4344M40
540.1388SWINNEN Benjamin30BEL2:55:0717:31 3.43242SEH
541.1390PASCAL Manuel31BEL2:55:2217:33 3.42243SEH
542.1360VAN DE WALLE Andy36BEL2:55:3017:33 3.4275M35
543.1359FPEETERS Marjorie33BEL2:55:3217:34 3.4297SEF
544.1391COLLET Raphaël45BEL2:55:3317:34 3.4229M45
545.1407DU ROCHEZ Geoffrey37BEL2:55:5817:36 3.4176M35
546.1404MORAY Lionel30BEL2:56:0417:37 3.41244SEH
547.1409TACKOEN Olivier38BEL2:56:0417:37 3.4177M35
548.1448VANDENBOGAERDE Mathieu21BEL2:56:0917:37 3.41245SEH
549.1386HUBAUT Paul21BEL2:56:1017:37 3.41246SEH
550.1449VANDENABEELE Julien23BEL2:56:1217:38 3.41247SEH
551.1797COLLIGE Jérome32BEL2:56:1917:38 3.40248SEH
552.1301DEMOULIN Karl43BEL2:56:2117:39 3.4045M40
553.1791DEBRY Dominique46BEL2:56:2117:39 3.4030M45
554.1721GUILLAUME Dao-Lian18BEL2:56:3117:40 3.40249SEH
555.1672FCLÉMENTZ Manon21BEL2:56:4617:41 3.3998SEF
556.1676DELPLANQUE Grégory31BEL2:56:4817:41 3.39250SEH
557.1665FPIRNAY Isaline20BEL2:57:5817:48 3.3799SEF
558.1690NICOLAY Gilles40BEL2:58:0317:49 3.3746M40
559.1689NICOLAY Loïc31BEL2:58:0317:49 3.37251SEH
560.1735ROSSI Stefano Davide37BEL2:58:2217:51 3.3678M35
561.1715FRAPONI Roberta29BEL2:58:2317:51 3.36100SEF
562.1666DE IULIIS Andrea33BEL2:58:2517:51 3.36252SEH
563.1664FRICCI Silvia28BEL2:58:2517:51 3.36101SEF
564.1667FALLEZY Charlotte29BEL2:58:2517:51 3.36102SEF
565.1668DELLI ROCILI Ermanno33BEL2:58:2717:51 3.36253SEH
566.1603MOHIMONT Alexandre26BEL3:00:1418:02 3.33254SEH
567.1657FOLON Jimmy31BEL3:00:2118:03 3.33255SEH
568.1318YANICK Piacenti29BEL3:01:0918:07 3.31256SEH
569.1319FVERHOENE Nancy54BEL3:01:2018:08 3.312F50
570.1692FNICOLAY Marion27BEL3:01:3718:10 3.30103SEF
571.1691TROGU Pietro33BEL3:01:3918:10 3.30257SEH
572.1650FVAN MUIJLDER Christel34BEL3:03:2818:21 3.27104SEF
573.1747FROLAND Sandy22BEL3:03:2818:21 3.27105SEF
574.1749RASNEUR Clément24BEL3:03:3018:21 3.27258SEH
575.1750ROLAND Jessy24BEL3:03:3118:22 3.27259SEH
576.1649VAN MUIJLDER Fabrice21BEL3:03:3318:22 3.27260SEH
577.1554ALLYSON Riquet19BEL3:05:2218:33 3.24261SEH
578.1555ESTHER Garot20BEL3:05:2418:33 3.24262SEH
579.1551PERREMANS Emilien20BEL3:05:2418:33 3.24263SEH
580.1776NOTTET Jonathan34BEL3:05:4418:35 3.23264SEH
581.1775FDUVIVIER Isabelle43BEL3:06:0118:37 3.2311F40
582.1416GOEDERT Nicolas54BEL3:06:4418:41 3.219M50
583.1415GOEDERT Ludovic20BEL3:06:4518:41 3.21265SEH
584.1413FMICHEL Joëlle49BEL3:06:4518:41 3.216F45
585.1552THÉO Riquet19BEL3:11:1819:08 3.14266SEH
586.1553FCAPELLE Céliane18BEL3:11:1819:08 3.14106SEF
587.1533WILLIAM Rouchet19BEL3:11:2319:09 3.14267SEH
588.1768LELUBRE Florian23BEL3:12:3819:16 3.11268SEH
589.1769LELUBRE Gaëtan26BEL3:12:4019:16 3.11269SEH
590.1770FTHIRION Aline23BEL3:13:1319:20 3.11107SEF
591.1356DE CLERCQ Eddy51BEL3:13:2019:20 3.1010M50
592.1355DE CLERCQ Florian20BEL3:13:2119:21 3.10270SEH
593.1423COOSEMANS Romuald36BEL3:16:5619:42 3.0579M35
594.1306FDUBOIS Mathilde25BEL3:17:0019:42 3.05108SEF
595.1305FLOPEZ SANTAELLA Ines24BEL3:17:0219:43 3.05109SEF
596.1595FSCALI Laura26BEL3:26:3820:40 2.90110SEF
597.1592HARDY Damien32BEL3:26:3920:40 2.90271SEH
598.1499FGOFFOY Charlene31BEL3:30:2321:03 2.85111SEF
599.1498FVAN DEN STEEN Mélanie34BEL3:30:5121:06 2.85112SEF
600.1454DE CLERCQ Stéphane30BEL3:30:5721:06 2.84272SEH
601.1500GROTARD Kenny29BEL3:30:5721:06 2.84273SEH
602.1421REVENU Adrien26BEL3:30:5921:06 2.84274SEH
603.1309FVASTESAEGER Marion26BEL3:31:0321:07 2.84113SEF
604.1308FCAYPHAS Noemie34BEL3:31:0521:07 2.84114SEF
605.1484MOREAU Nathan29BEL3:45:2422:33 2.66275SEH
606.1459FVAN ACKER Marie22BEL3:50:0723:01 2.61115SEF
607.3441FTAGLIAFERO Laura-Lysa26BEL3:52:5723:18 2.58116SEF
608.3443TAGLIAFERO Guillaume21BEL3:54:0323:25 2.56276SEH
609.3442GIOVANNI Delcourt23BEL3:54:0323:25 2.56277SEH
DNF1759FAVART Sophie39BELF35
DNF1743FDE RIDDER Sandrine37BELF35
DNF1537DEMAN Cédric41BELM40
DNF1210ILARDI Jayson29BELSEH
DNF1483TELLER Alain36BELM35
DNF3203THIERENS François35BELM35
DNF: abandon; DSQ: disqualifié; Vitesse en km/h
Page: 1 [2]